Volver al catálogo

NUSAT-39

TIKVAH ALPER

ActivoCienciaSSO
NORAD 56201·PAYLOAD·🇦🇷 Argentina

Lanzado Apr 15, 2023 desde Vandenberg Space Force Base

Loading…

Próximos Pases (próximas 24 horas)

TLE

ActualizadoSource: Space-Track

Época: Sep 14, 2026, 14:11 UTC

1 56201U 23054Z   26257.59134888  .00027906  00000-0  48032-3 0  9990
2 56201  97.3029 168.4121 0006706  83.3208 276.8808 15.51035487192293

Sigue NUSAT-39 en tiempo real con AllMySat

Download on the App Store